Miscellaneous Local Product
Issued by NWS Hastings, NE

Home | Current Version | Previous Version | Text Only | Print | Product List | Glossary On
Versions: 1 2 3 4 5 6 7 8 9 10 11 12 13 14 15 16 17 18 19 20 21 22 23 24 25 26 27 28 29 30 31 32 33 34 35 36 37 38 39 40 41 42 43 44 45 46 47 48 49 50
000
AXUS43 KGID 301402
MISGRI

GID CWA HOURLY WEATHER ROUNDUP
NATIONAL WEATHER SERVICE HASTINGS NE
900 AM CDT THU MAR 30 2017

NOTE: "FAIR" INDICATES FEW OR NO CLOUDS BELOW 12,000 FEET WITH NO
SIGNIFICANT WEATHER AND/OR OBSTRUCTIONS TO VISIBILITY.

...SOUTH CENTRAL NEBRASKA...

CITY           SKY/WX    TMP DP  RH WIND       PRES   REMARKS
GRAND ISLAND   CLOUDY    37  37 100 N20       29.78R WCI  27
HASTINGS       CLOUDY    38  35  89 N24       29.77S WCI  27
KEARNEY        CLOUDY    37  34  87 N18       29.79S WCI  27
ORD            CLOUDY    38  34  85 N14       29.81R WCI  30
YORK           CLOUDY    37  37 100 N21       29.75S WCI  27
AURORA         CLOUDY    38  38 100 N18G25    29.76S WCI  28
LEXINGTON      CLOUDY    37  34  90 N14       29.83S WCI  28
HOLDREGE       CLOUDY    37  34  90 N18       29.80R WCI  27
HEBRON         CLOUDY    39  37  91 N15G28    29.73S WCI  31

...NEBRASKA PANHANDLE...

CITY           SKY/WX    TMP DP  RH WIND       PRES   REMARKS
CHADRON        CLOUDY    33  31  92 CALM      29.78S
ALLIANCE       CLOUDY    31  31 100 S5        29.78S WCI  26
SCOTTSBLUFF    CLOUDY    35  32  88 CALM      29.78F
SIDNEY         CLOUDY    34  32  92 W6        29.80S WCI  29

...WESTERN AND NORTH CENTRAL NEBRASKA...

CITY           SKY/WX    TMP DP  RH WIND       PRES   REMARKS
VALENTINE      CLOUDY    35  33  92 CALM      29.84F
AINSWORTH      CLOUDY    35  35  99 NE9       29.84S WCI  28
ONEILL         CLOUDY    38  37  99 NE8       29.83S WCI  32
BROKEN BOW     CLOUDY    36  32  85 N8        29.82S WCI  30
IMPERIAL       CLOUDY    37  35  92 N7        29.83R WCI  32
NORTH PLATTE   CLOUDY    38  33  82 N10       29.82S WCI  31
MCCOOK         CLOUDY    38  35  89 N14       29.83R WCI  30

...EASTERN NEBRASKA...

CITY           SKY/WX    TMP DP  RH WIND       PRES   REMARKS
NORFOLK        CLOUDY    38  36  92 NE12      29.79S WCI  30
SO SIOUX CITY  CLOUDY    39  37  92 NE16G23   29.80F WCI  30
TEKAMAH        CLOUDY    40  38  93 N16       29.76S WCI  31
COLUMBUS       CLOUDY    39  36  87 N17G23    29.77F WCI  30
ALBION         CLOUDY    39  36  87 N15G22    29.79F WCI  31
OMAHA EPPLEY   CLOUDY    42  37  82 N16       29.72S
OFFUTT AFB     LGT RAIN  41  39  93 N10G18    29.70S FOG
MILLARD        CLOUDY    43  41  91 NE6       29.72S
LINCOLN        CLOUDY    40  39  97 N20       29.73S WCI  30
NEBRASKA CITY  LGT RAIN  41  41 100 N20       29.66F
BEATRICE       CLOUDY    41  40  99 N18G24    29.68R
FALLS CITY     HVY RAIN  43  42  97 N12       29.62S FOG

...NORTHERN KANSAS...

CITY           SKY/WX    TMP DP  RH WIND       PRES   REMARKS
GOODLAND       FOG       35  35 100 N10       29.82S VSB 1/4 WCI  27
HILL CITY      CLOUDY    38  38 100 N12       29.83R WCI  30
NORTON         CLOUDY    36  32  87 N14       29.81S FOG     WCI  27
PHILLIPSBURG   CLOUDY    39  36  87 NW13G21   29.81S WCI  32
HAYS             N/A     39  35  86 N22G29    29.78S WCI  29
RUSSELL        CLOUDY    39  36  89 N18G29    29.75R WCI  30
CONCORDIA      CLOUDY    39  38  96 N17G28    29.70S WCI  30
SALINA         LGT RAIN  42  39  89 N21       29.70R
TOPEKA         CLOUDY    50  49  96 N3        29.57R



USA.gov is the U.S. government's official web portal to all federal, state and local government web resources and services.